This demonstration page uses our WeatherBlox Daily Observations layout. Learn more.

Left ArrowRight Arrow

41.12389, -100.76542

Hourly Observations for March 3, 2018

Temp ( °F °C ) Dew Point ( °F °C ) Humidity (%) Winds ( mph kmh ) Pressure ( in mb ) Visibility ( mi km ) Precip ( " mm )
12:53 am 00:53 Clear 36 2.2 28 -2.2 73 73 E 9 15 29.87 1012 10 16 0.00 0.00
1:53 am 01:53 Clear 36 2.2 27 -2.8 70 70 E 10 17 29.86 1011 10 16 0.00 0.00
2:53 am 02:53 Clear 33 0.6 26 -3.3 75 75 E 9 15 29.87 1011 10 16 0.00 0.00
3:53 am 03:53 Clear 30 -1.1 24 -4.4 79 79 E 8 13 29.85 1011 10 16 0.00 0.00
4:53 am 04:53 Clear 29 -1.7 24 -4.4 82 82 E 6 9 29.87 1011 10 16 0.00 0.00
5:53 am 05:53 Clear 26 -3.3 21 -6.1 81 81 Calm 29.90 1012 10 16 0.00 0.00
6:53 am 06:53 Clear 25 -3.9 21 -6.1 85 85 Calm 29.93 1014 10 16 0.00 0.00
7:53 am 07:53 Sunny 30 -1.1 25 -3.9 82 82 Calm 29.92 1013 10 16 0.00 0.00
8:53 am 08:53 Sunny 36 2.2 29 -1.7 76 76 Calm 29.94 1014 10 16 0.00 0.00
9:53 am 09:53 Sunny 42 5.6 31 -0.6 65 65 Calm 29.93 1013 10 16 0.00 0.00
10:53 am 10:53 Sunny 46 7.8 31 -0.6 56 56 Calm 29.92 1013 10 16 0.00 0.00
11:53 am 11:53 Sunny 52 11.1 32 0 47 47 E 3 6 29.90 1013 10 16 0.00 0.00
12:53 pm 12:53 Sunny 58 14.4 35 1.7 42 42 SE 9 15 29.88 1012 10 16 0.00 0.00
1:53 pm 13:53 Sunny 59 15 34 1.1 39 39 SE 8 13 29.85 1011 10 16 0.00 0.00
2:53 pm 14:53 Sunny 60 15.6 35 1.7 39 39 E 12 19 29.85 1011 10 16 0.00 0.00
3:53 pm 15:53 Sunny 62 16.7 37 2.8 40 40 ESE 10 17 29.84 1011 10 16 0.00 0.00
4:53 pm 16:53 Sunny 62 16.7 35 1.7 37 37 ESE 10 17 29.84 1011 10 16 0.00 0.00
5:53 pm 17:53 Sunny 57 13.9 33 0.6 41 41 E 8 13 29.85 1011 10 16 0.00 0.00
6:53 pm 18:53 Clear 46 7.8 29 -1.7 51 51 ENE 6 9 29.87 1012 10 16 0.00 0.00
7:53 pm 19:53 Clear 43 6.1 30 -1.1 60 60 E 6 9 29.85 1011 10 16 0.00 0.00
8:53 pm 20:53 Clear 38 3.3 30 -1.1 73 73 ENE 7 11 29.85 1011 10 16 0.00 0.00
9:53 pm 21:53 Clear 34 1.1 27 -2.8 76 76 E 9 15 29.84 1011 10 16 0.00 0.00
10:53 pm 22:53 Clear 34 1.1 28 -2.2 79 79 E 9 15 29.81 1010 10 16 0.00 0.00
11:53 pm 23:53 Clear 39 3.9 34 1.1 82 82 ESE 10 17 29.78 1009 10 16 0.00 0.00

Powered by AerisWeather